Notices

What's New in latest Release from April 7th, 2021:

- Updated Glossary, including Speed of Maximum Gust, and Total Hourly Precipitation

- Updated national and regional climate services offices contacts and prices information

- Addition of station inventory lists for 1981-2010, 1971-2000, and 1961-1990 Normals.

If you haven't already, please take our survey and provide feedback about our website: https://eccc.sondage-survey.ca/f/LanguageSelection.aspx?s=442ca660-fcf1-47c0-95a9-59707d6fd709

Hourly Data Report for October 18, 2019

PINAWA
MANITOBA
Current Station Operator: ECCC - MSC

50°10'38.020" N
96°03'53.000" W
268.00 m
503B1ER
71448
WEA

Download Data

Hourly Data (October 2019)
Hourly Data Report for October 18, 2019
TIME
LST
Temp Definition
°C
Dew Point Definition
°C
Rel Hum Definition
%
Precip. Amount Definition
mm

Wind Dir Definition
10's deg

Wind Spd Definition
km/h
Visibility Definition
km
Stn Press Definition
kPa
Hmdx Definition


Wind Chill Definition


Weather Definition


00:00 8.0 LegendMM LegendMM LegendMM 15 15   97.33     LegendNANA
01:00 7.9 LegendMM LegendMM LegendMM 14 15   97.28     LegendNANA
02:00 7.3 LegendMM LegendMM LegendMM 14 13   97.18     LegendNANA
03:00 7.5 LegendMM LegendMM LegendMM 14 14   97.08     LegendNANA
04:00 7.1 LegendMM LegendMM LegendMM 13 13   96.97     LegendNANA
05:00 7.0 LegendMM LegendMM LegendMM 14 12   96.89     LegendNANA
06:00 6.8 LegendMM LegendMM LegendMM 13 12   96.83     LegendNANA
07:00 6.9 LegendMM LegendMM LegendMM 14 12   96.75     LegendNANA
08:00 7.8 LegendMM LegendMM LegendMM 14 15   96.70     LegendNANA
09:00 8.8 LegendMM LegendMM LegendMM 14 15   96.66     LegendNANA
10:00 10.2 LegendMM LegendMM LegendMM 15 18   96.60     LegendNANA
11:00 11.7 LegendMM LegendMM LegendMM 16 18   96.54     LegendNANA
12:00 12.0 LegendMM LegendMM LegendMM 16 13   96.48     LegendNANA
13:00 12.6 LegendMM LegendMM LegendMM 14 13   96.40     LegendNANA
14:00 12.7 LegendMM LegendMM LegendMM 13 12   96.36     LegendNANA
15:00 12.9 LegendMM LegendMM LegendMM 14 12   96.35     LegendNANA
16:00 13.1 LegendMM LegendMM LegendMM 14 7   96.35     LegendNANA
17:00 12.8 LegendMM LegendMM LegendMM 14 5   96.38     LegendNANA
18:00 12.3 LegendMM LegendMM LegendMM 26 3   96.43     LegendNANA
19:00 11.0 LegendMM LegendMM LegendMM   0   96.41     LegendNANA
20:00 11.1 LegendMM LegendMM LegendMM 17 3   96.39     LegendNANA
21:00 11.1 LegendMM LegendMM LegendMM 20 2   96.34     LegendNANA
22:00 9.9 LegendMM LegendMM LegendMM 20 2   96.32     LegendNANA
23:00 9.1 LegendMM LegendMM LegendMM 22 5   96.32     LegendNANA

Notes on Data Quality.

Legend

  • E = Estimated
  • M = Missing
  • NA = Not Available*
  • [empty] = Indicates an unobserved value
Date modified: